Location: Downe
(51.3167°N, 0.0500°E)
Time: 21:48:36
(UTC+00:00)

Cosmos 1153 Rocket - Pass Details

Date: 17 November 2019
Orbit: 954 x 1006 km, 82.9° (Epoch: 10 December)

Event Time Altitude Azimuth Distance (km) Brightness Sun altitude
Rises 05:07:42 0° 201° (SSW) 3,623 7.3 -20.4°
Reaches altitude 10° 05:10:14 10° 206° (SSW) 2,679 6.6 -20.0°
Maximum altitude 05:16:15 58° 285° (WNW) 1,105 4.4 -19.0°
Drops below altitude 10° 05:22:20 10° 4° (N) 2,701 6.8 -18.1°
Sets 05:24:54 0° 9° (N) 3,655 7.5 -17.7°
